TimeCDT,TemperatureF,Dew PointF,Humidity,Sea Level PressureIn,VisibilityMPH,Wind Direction,Wind SpeedMPH,Gust SpeedMPH,PrecipitationIn,Events,Conditions,WindDirDegrees,DateUTC
12:55 AM,70.0,62.1,76,30.03,10.0,SSE,4.6,-,N/A,,Partly Cloudy,160,2013-07-25 05:55:00
1:55 AM,69.1,62.1,78,30.01,10.0,SSE,5.8,-,N/A,,Clear,150,2013-07-25 06:55:00
2:55 AM,69.1,62.1,78,30.00,10.0,SSE,6.9,-,N/A,,Clear,160,2013-07-25 07:55:00
3:55 AM,69.1,60.1,73,30.00,10.0,SSE,5.8,-,N/A,,Clear,150,2013-07-25 08:55:00
4:55 AM,70.0,61.0,73,30.04,10.0,NW,4.6,-,N/A,,Mostly Cloudy,320,2013-07-25 09:55:00
5:55 AM,68.0,62.1,81,30.01,10.0,Calm,Calm,-,N/A,,Mostly Cloudy,0,2013-07-25 10:55:00
6:55 AM,66.9,63.0,87,30.02,10.0,SW,3.5,-,N/A,,Overcast,230,2013-07-25 11:55:00
7:55 AM,70.0,62.1,76,30.04,10.0,SW,4.6,-,0.00,Rain,Light Rain,230,2013-07-25 12:55:00
8:55 AM,69.1,64.9,87,30.04,10.0,West,9.2,-,0.01,Rain,Light Rain,280,2013-07-25 13:55:00
9:55 AM,70.0,66.0,87,30.03,10.0,ENE,4.6,-,0.00,,Overcast,70,2013-07-25 14:55:00
10:55 AM,71.1,66.0,84,30.01,10.0,East,9.2,-,N/A,,Overcast,100,2013-07-25 15:55:00
11:55 AM,71.1,64.9,81,30.03,10.0,East,4.6,-,N/A,,Overcast,100,2013-07-25 16:55:00
12:12 PM,71.6,64.4,78,30.08,6.0,South,6.9,-,0.00,Rain-Thunderstorm,Light Rain,170,2013-07-25 17:12:00
12:23 PM,69.8,66.2,88,30.08,2.5,SE,5.8,-,0.07,Rain-Thunderstorm,Rain,140,2013-07-25 17:23:00
12:42 PM,69.8,66.2,88,30.08,5.0,South,6.9,-,0.11,Rain-Thunderstorm,Light Rain,180,2013-07-25 17:42:00
12:51 PM,69.8,66.2,88,30.08,2.5,SSE,11.5,-,0.19,Rain-Thunderstorm,Light Rain,160,2013-07-25 17:51:00
12:55 PM,69.1,66.0,90,30.06,5.0,South,11.5,-,0.19,Rain-Thunderstorm,Light Rain,170,2013-07-25 17:55:00
1:19 PM,68.0,64.4,88,30.08,1.8,ESE,12.7,20.7,0.06,Rain-Thunderstorm,Heavy Thunderstorms and Rain,110,2013-07-25 18:19:00
1:26 PM,68.0,64.4,88,30.07,1.2,East,13.8,18.4,0.22,Rain-Thunderstorm,Light Rain,100,2013-07-25 18:26:00
1:28 PM,68.0,64.4,88,30.07,1.8,East,9.2,18.4,0.22,Rain-Thunderstorm,Light Rain,90,2013-07-25 18:28:00
1:30 PM,68.0,64.4,88,30.07,4.0,East,8.1,18.4,0.22,Rain-Thunderstorm,Light Rain,90,2013-07-25 18:30:00
1:55 PM,68.0,64.9,90,30.05,10.0,ESE,8.1,-,0.22,,Overcast,120,2013-07-25 18:55:00
2:55 PM,69.1,66.0,90,30.04,10.0,SE,10.4,-,N/A,,Overcast,140,2013-07-25 19:55:00
3:55 PM,71.1,66.0,84,30.02,10.0,SSE,15.0,-,0.00,,Overcast,150,2013-07-25 20:55:00
4:55 PM,73.0,68.0,84,30.02,10.0,SSE,9.2,-,0.00,,Mostly Cloudy,150,2013-07-25 21:55:00
5:55 PM,73.0,68.0,84,29.99,10.0,SSE,13.8,23.0,N/A,,Scattered Clouds,160,2013-07-25 22:55:00
6:55 PM,73.0,64.9,76,29.97,10.0,SSE,10.4,-,N/A,,Scattered Clouds,160,2013-07-25 23:55:00
7:55 PM,71.1,64.9,81,29.98,10.0,SSE,13.8,-,N/A,,Mostly Cloudy,160,2013-07-26 00:55:00
8:55 PM,69.1,64.9,87,29.97,10.0,SSE,10.4,-,N/A,,Mostly Cloudy,150,2013-07-26 01:55:00
9:55 PM,70.0,64.9,84,29.98,10.0,SSE,10.4,-,0.00,Rain,Light Rain,160,2013-07-26 02:55:00
10:55 PM,68.0,66.0,93,30.00,9.0,SSE,3.5,-,0.05,Rain,Light Rain,160,2013-07-26 03:55:00
11:51 PM,68.0,66.2,94,30.04,5.0,SW,4.6,-,0.08,Rain,Rain,230,2013-07-26 04:51:00
11:55 PM,69.1,66.0,90,30.00,5.0,SSW,6.9,-,0.10,Rain,Rain,210,2013-07-26 04:55:00